Weather History for Blythe, CA

Change the Weather History Date:

Thursday, April 12, 2012

  Actual Average Record
Temperature  
Mean Temperature 64 °F -  
Max Temperature 77 °F 81 °F 98 °F (1985)
Min Temperature 53 °F 52 °F 45 °F (1991)
Degree Days  
Heating Degree Days 1    
Growing Degree Days 14 (Base 50)    
Moisture  
Dew Point 32 °F    
Average Humidity 32    
Maximum Humidity 48    
Minimum Humidity 13    
Precipitation  
Precipitation 0.00 in - - ()
Sea Level Pressure  
Sea Level Pressure 29.99 in    
Wind  
Wind Speed 10 mph (SW)    
Max Wind Speed 20 mph    
Max Gust Speed 20 mph    
Visibility 10 miles    
Events      
Averages and records for this station are not official NWS values.
T = Trace of Precipitation, MM = Missing Value Source: NWS Daily Summary

Daily Weather History Graph

Daily Weather History Graph

Search for Another Location

Airport:

Trip Planner

Search our weather history database for the weather conditions in past years. The results will help you decide how hot, cold, wet, or windy it might be!

Date:

Astronomy

Apr. 12, 2012 Rise Set
Actual Time 6:11 AM PDT 7:08 PM PDT
Civil Twilight 5:45 AM PDT 7:33 PM PDT
Nautical Twilight 5:15 AM PDT 8:03 PM PDT
Astronomical Twilight 4:44 AM PDT 8:34 PM PDT
Moon 12:49 AM PDT (4/12) 11:19 AM PDT (4/12)
Length of Visible Light 13h 47m
Length of Day
12h 56m
Waning Gibbous, 57% of the Moon is Illuminated
Apr 12
Waning Gibbous
Apr 13
Last Quarter
Apr 21
New
Apr 29
First Quarter
May 5
Full

Hourly Weather History & Observations

Time (PDT) Temp. Dew Point Humidity Pressure Visibility Wind Dir Wind Speed Gust Speed Precip Events Conditions
12:52 AM 57.9 °F 36.0 °F 44% 29.97 in 10.0 mi WSW 18.4 mph - N/A   Clear
1:52 AM 57.9 °F 37.0 °F 46% 29.98 in 10.0 mi SW 10.4 mph - N/A   Clear
2:52 AM 57.9 °F 36.0 °F 44% 29.99 in 10.0 mi WNW 3.5 mph - N/A   Clear
3:52 AM 55.9 °F 35.1 °F 45% 29.99 in 10.0 mi WSW 9.2 mph - N/A   Clear
4:52 AM 54.0 °F 34.0 °F 47% 30.01 in 10.0 mi SSW 5.8 mph - N/A   Clear
5:52 AM 53.1 °F 34.0 °F 48% 30.02 in 10.0 mi SW 9.2 mph - N/A   Clear
6:52 AM 55.0 °F 33.1 °F 43% 30.05 in 10.0 mi West 8.1 mph - N/A   Clear
7:52 AM 57.9 °F 36.0 °F 44% 30.07 in 10.0 mi West 6.9 mph - N/A   Clear
8:52 AM 60.1 °F 35.1 °F 39% 30.08 in 10.0 mi Calm Calm - N/A   Clear
9:52 AM 64.0 °F 30.9 °F 29% 30.08 in 10.0 mi NW 3.5 mph - N/A   Clear
10:52 AM 66.0 °F 30.0 °F 26% 30.07 in 10.0 mi Calm Calm - N/A   Clear
11:52 AM 70.0 °F 26.1 °F 19% 30.07 in 10.0 mi SSW 10.4 mph 19.6 mph N/A   Clear
12:52 PM 71.1 °F 25.0 °F 18% 30.04 in 10.0 mi WSW 11.5 mph - N/A   Clear
1:52 PM 72.0 °F 25.0 °F 17% 30.01 in 10.0 mi Variable 6.9 mph - N/A   Clear
2:52 PM 73.9 °F 27.0 °F 18% 29.98 in 10.0 mi South 9.2 mph - N/A   Clear
3:52 PM 75.9 °F 27.0 °F 16% 29.95 in 10.0 mi South 11.5 mph 17.3 mph N/A   Clear
4:52 PM 75.9 °F 24.1 °F 15% 29.93 in 10.0 mi SSW 11.5 mph 16.1 mph N/A   Clear
5:52 PM 73.9 °F 19.9 °F 13% 29.93 in 10.0 mi SW 15.0 mph - N/A   Clear
6:52 PM 72.0 °F 28.9 °F 20% 29.93 in 10.0 mi SW 19.6 mph - N/A   Clear
7:52 PM 70.0 °F 35.1 °F 28% 29.94 in 10.0 mi SW 19.6 mph - N/A   Clear
8:52 PM 66.9 °F 37.0 °F 33% 29.94 in 10.0 mi SW 13.8 mph - N/A   Clear
9:52 PM 66.0 °F 37.9 °F 36% 29.93 in 10.0 mi SSW 8.1 mph - N/A   Clear
10:52 PM 64.0 °F 39.0 °F 40% 29.92 in 10.0 mi South 8.1 mph - N/A   Clear
11:52 PM 62.1 °F 41.0 °F 46% 29.91 in 10.0 mi South 12.7 mph - N/A   Clear